Location: Marcé
(47.5801°N, 0.3280°W)
Time: 00:54:52
(UTC+01:00)

Tiros 1 - Pass Details

Date: 05 December 2021
Orbit: 629 x 664 km, 48.4° (Epoch: 26 January)

Event Time Altitude Azimuth Distance (km) Brightness Sun altitude
Rises 20:11:04 0° 248° (WSW) 2,918 11.5 -29.5°
Reaches altitude 10° 20:13:22 10° 246° (WSW) 2,016 10.5 -29.9°
Enters shadow 20:16:10 36° 239° (WSW) 1,008 8.5 -30.4°
